Regional Weather Roundup
Issued by NWS Cleveland, OH

Home | Current Version | Previous Version | Graphics & Text | Print | Product List | Glossary On
Versions: 1 2 3 4 5 6 7 8 9 10 11 12 13 14 15 16 17 18 19 20 21 22 23 24 25 26 27 28 29 30 31 32 33 34 35 36 37 38 39 40 41 42 43 44 45 46 47 48 49 50
000
ASUS41 KCLE 010500
RWRCLE
OHIO REGIONAL WEATHER ROUNDUP
NATIONAL WEATHER SERVICE WILMINGTON, OH
100 AM EDT FRI AUG 01 2014

NOTE: "FAIR" INDICATES FEW OR NO CLOUDS BELOW 12,000 FEET WITH NO
SIGNIFICANT WEATHER AND/OR OBSTRUCTIONS TO VISIBILITY.

OHZ001>008-015>018-024>027-034-035-043-044-010600-
   NORTHWEST OHIO

CITY           SKY/WX    TMP DP  RH WIND       PRES   REMARKS
DEFIANCE       MOCLDY    65  62  90 CALM      30.08S
FINDLAY        CLOUDY    67  61  81 S7        30.08S
TOLEDO EXPRESS CLEAR     62  59  90 CALM      30.07S
TOLEDO METCALF CLEAR     65  58  78 CALM      30.08S
LIMA           PTCLDY    65  59  81 S5        30.11R
$$

OHZ009>014-019>023-028>033-038-089-010600-
   NORTHEAST OHIO

CITY           SKY/WX    TMP DP  RH WIND       PRES   REMARKS
CLE-HOPKINS    PTCLDY    66  57  72 S6        30.11R
CLE-LAKEFRONT  PTCLDY    71  58  63 S7        30.08R
CUY CO. ARPT   NOT AVBL
LORAIN-ELYRIA  CLOUDY    68  59  73 S3        30.10R
ASHTABULA      MOCLDY    62  56  80 S7        30.11R
AKRON-CANTON   PTCLDY    67  57  70 S3        30.12R
WOOSTER        NOT AVBL
MANSFIELD      CLEAR     63  59  87 S3        30.13R
YOUNGSTOWN     PTCLDY    65  57  75 S6        30.12S
$$

OHZ042-051>053-060>062-070>072-077>081-010600-
  SOUTHWEST OHIO

CITY           SKY/WX    TMP DP  RH WIND       PRES   REMARKS
CINC-COVINGTON CLEAR     67  60  78 CALM      30.11R
CINC-LUNKEN    PTCLDY    64  62  93 CALM      30.11R
HAMILTON       CLEAR     63  61  93 CALM      30.11R
DAYTON         NOT AVBL
WRIGHT-PAT AFB CLEAR     63  60  90 NE2       30.11R
DAYTON GENERAL PTCLDY    67  59  75 CALM      30.11R
WILMINGTON     LGT RAIN  71  61  70 CALM      30.11S
$$

OHZ036-037-039>041-045>050-054>059-063>069-073>076-082>088-010600-
  CENTRAL AND SOUTHEAST OHIO

CITY           SKY/WX    TMP DP  RH WIND       PRES   REMARKS
COLUMBUS       CLEAR     69  61  75 CALM      30.11R
OSU AIRPORT    PTCLDY    68  60  75 CALM      30.11R
BOLTON FIELD   NOT AVBL
RICKENBACK AFB NOT AVBL
NEWARK         CLEAR     61  59  93 CALM      30.11R FOG
MARION         CLEAR     63  59  87 S3        30.12R
LANCASTER      CLEAR     61  58  90 CALM      30.12R FOG
ZANESVILLE     PTCLDY    63  60  90 CALM      30.12R
NEW PHILLY     CLEAR     61  60  97 CALM      30.13R
$$



USA.gov is the U.S. government's official web portal to all federal, state and local government web resources and services.